Vertical_Velocity
-4 -4 -2 -1 -4 -7 -6 -2 -1 -2 -4 -3 -3 -3 -2 -2 -2 -2 -1 -0 -2 -3 -5 -5 -6 -7 -8 -6 -4 -2 -0 -0 -0 -0 -0 -1 -1 -2 -1 -2 -2 -3 -4 -6 -7 -7 -7 -7 -7 -6 -5 -3 -2 -1 0 2 3 4 4 4 4 3 3 2 1 -0 -1 -7 -8 -5 6 4 -6 -14 -11 -5 0 4 3 3 3 4 6 12 20 25
-2 -3 -2 -2 -4 -6 -7 -0 1 -0 -4 -3 -2 -2 -3 -3 -3 -2 -1 -0 -1 -3 -5 -5 -5 -5 -6 -5 -3 -1 1 1 1 0 -0 -1 -2 -2 -2 -2 -2 -3 -3 -4 -6 -6 -7 -7 -6 -4 -2 1 4 7 6 3 1 0 0 1 2 2 2 2 2 2 -0 -10 -10 -0 16 8 -4 -14 -13 -7 -2 0 -2 -2 0 4 7 9 12 18
-2 -4 -3 -2 -3 -4 -6 -1 2 2 -2 -3 -3 -3 -3 -4 -4 -3 -2 -2 -2 -2 -2 -4 -4 -5 -5 -4 -3 -1 0 1 1 -0 -1 -2 -2 -3 -3 -4 -4 -4 -3 -4 -4 -5 -6 -4 1 6 8 9 8 5 -0 -3 -4 -4 -1 0 2 2 2 3 4 2 -3 -12 -7 6 19 5 -5 -12 -11 -9 -7 -7 -9 -6 3 11 10 10 13 19
-2 -5 -5 -4 -3 -2 -2 -2 -1 -0 -1 -3 -3 -2 -1 -2 -4 -4 -3 -2 -3 -3 -3 -2 -4 -6 -8 -8 -7 -5 -3 -2 -2 -2 -2 -3 -3 -4 -4 -4 -4 -4 -4 -4 -4 -5 -5 -0 7 13 10 4 -1 -3 -4 -3 -2 -2 -0 1 3 3 4 4 3 -0 -8 -8 2 12 11 -3 -7 -8 -9 -11 -12 -11 -11 -4 8 16 14 12 14 20
-0 -2 -4 -5 -5 -4 -1 -1 -2 -3 -2 -3 -4 -4 -2 -2 -4 -6 -7 -6 -6 -6 -6 -5 -5 -6 -8 -10 -10 -8 -6 -5 -4 -3 -3 -3 -4 -4 -4 -4 -4 -4 -4 -3 -4 -4 -5 -4 -0 2 -0 -3 -4 -3 -2 -1 -0 -1 -0 1 3 4 5 4 -0 -5 -10 1 14 18 4 -7 -8 -7 -8 -11 -11 -10 -8 -1 8 14 14 10 11 16
-0 -0 -1 -3 -5 -6 -4 -1 -1 -3 -6 -7 -7 -6 -5 -5 -5 -7 -8 -9 -8 -8 -7 -7 -6 -6 -6 -7 -8 -9 -8 -6 -5 -3 -2 -2 -3 -4 -4 -3 -3 -2 -2 -2 -2 -2 -3 -4 -4 -4 -5 -4 -4 -3 -2 -2 -2 -1 -1 1 3 5 5 2 -4 -10 -10 10 21 19 -0 -4 -5 -6 -9 -10 -9 -7 -5 -0 7 12 12 11 12 17
-2 -0 1 -1 -2 -4 -6 -5 -2 -1 -4 -10 -11 -10 -7 -6 -6 -7 -6 -6 -6 -6 -7 -6 -6 -6 -6 -6 -7 -9 -10 -9 -7 -5 -3 -2 -2 -3 -3 -3 -2 -2 -1 -1 -1 -1 -2 -2 -3 -3 -4 -4 -4 -4 -3 -2 -2 -2 -2 1 4 6 5 -1 -8 -13 -8 16 22 15 -1 -1 -2 -4 -8 -10 -10 -8 -4 -0 6 11 12 11 12 18
-4 -1 1 -1 -3 -5 -7 -6 -4 -2 -2 -7 -11 -12 -10 -9 -9 -9 -9 -6 -4 -5 -7 -10 -10 -10 -8 -7 -7 -8 -11 -12 -12 -11 -9 -7 -6 -5 -5 -4 -4 -3 -2 -2 -2 -2 -2 -2 -2 -2 -3 -4 -4 -4 -3 -2 -2 -2 -1 2 5 6 5 -3 -11 -13 -2 19 20 11 1 1 -0 -3 -7 -10 -11 -9 -4 0 6 10 12 8 8 14
-4 -4 -2 -2 -4 -8 -11 -9 -6 -2 -2 -6 -9 -12 -13 -13 -12 -12 -12 -11 -8 -6 -7 -11 -14 -13 -10 -6 -4 -5 -8 -10 -10 -9 -9 -9 -8 -7 -6 -5 -5 -4 -3 -3 -2 -2 -2 -2 -2 -2 -3 -3 -3 -3 -3 -2 -2 -2 -1 3 6 7 5 -5 -12 -11 5 18 16 7 2 2 -0 -4 -7 -10 -12 -10 -5 -0 3 6 6 6 10 17
-4 -6 -8 -7 -7 -8 -12 -15 -11 -4 -0 -4 -7 -10 -13 -14 -14 -13 -14 -13 -10 -6 -3 -6 -9 -10 -10 -6 -2 -2 -4 -7 -6 -3 -0 -1 -2 -2 -3 -3 -4 -4 -4 -3 -3 -2 -2 -2 -2 -2 -3 -3 -3 -3 -2 -2 -2 -1 -0 3 6 7 4 -6 -11 -8 10 16 11 3 1 1 -1 -4 -6 -9 -11 -11 -7 -3 -1 0 3 10 20 29
-7 -8 -10 -12 -11 -10 -10 -13 -12 -8 -3 -4 -7 -10 -12 -12 -12 -13 -16 -16 -11 -5 0 1 0 -1 -4 -5 -4 -2 -1 -5 -6 -4 0 2 2 2 -0 -2 -3 -3 -3 -2 -2 -1 -1 -1 -1 -2 -2 -3 -3 -2 -2 -2 -1 -1 0 3 6 6 3 -6 -9 -3 12 13 7 0 -1 0 -0 -2 -5 -7 -10 -10 -7 -4 -4 -2 5 18 30 38
-10 -11 -11 -11 -11 -10 -8 -8 -6 -5 -4 -6 -8 -9 -7 -5 -4 -6 -11 -16 -13 -7 -2 -1 1 4 7 2 -3 -6 -4 -4 -4 -4 -2 -0 1 1 -1 -3 -4 -3 -2 -2 -1 -0 1 0 -0 -1 -2 -2 -2 -2 -1 -1 -1 -0 1 4 6 6 2 -5 -5 1 11 7 2 -3 -3 -2 -1 -1 -3 -6 -9 -10 -7 -4 -3 -1 6 20 30 36
-10 -10 -10 -9 -8 -6 -5 -4 -4 -3 -3 -3 -3 -3 -3 -1 1 2 -1 -8 -9 -6 -3 -7 -6 -1 8 9 4 -3 -8 -9 -8 -5 -2 -2 -1 -1 -3 -6 -6 -5 -3 -3 -3 -1 2 1 -0 -2 -1 -1 -2 -2 -1 -1 -1 0 2 4 5 5 2 -2 -1 3 7 1 -3 -6 -6 -4 -2 -2 -4 -6 -8 -9 -6 -2 -0 1 4 16 23 26
-7 -5 -5 -6 -6 -3 -0 1 -1 -3 -5 -3 -1 -1 -2 -1 0 2 0 -5 -4 -2 1 -6 -9 -7 3 9 8 3 -5 -11 -13 -11 -7 -3 -0 1 -2 -7 -8 -6 -2 -3 -4 -3 1 0 -2 -3 -1 -0 -0 -1 0 -0 0 1 2 4 4 4 3 2 2 3 1 -4 -7 -8 -7 -5 -3 -3 -4 -5 -6 -7 -5 0 1 1 4 10 13 14
-4 -2 -3 -4 -3 -1 2 2 0 -3 -5 -3 -2 -2 -1 -0 1 2 2 -4 -5 -3 -1 -7 -10 -9 -0 10 13 9 -0 -8 -12 -13 -11 -6 0 4 3 -6 -9 -8 -2 -3 -4 -4 0 0 -2 -4 -3 -1 -0 0 1 0 1 2 3 4 4 4 5 5 3 -0 -4 -8 -9 -9 -7 -5 -4 -4 -6 -5 -6 -6 -4 2 2 0 1 5 3 4
-1 -1 -3 -4 -3 -0 2 1 -1 -4 -4 -2 -1 -0 -0 -1 1 4 6 -1 -4 -5 -5 -10 -16 -18 -13 5 16 18 10 -2 -9 -12 -10 -10 -4 3 7 -3 -10 -11 -5 -2 -3 -4 -2 -1 -2 -3 -4 -2 -1 1 1 1 1 2 4 5 5 5 6 5 1 -3 -7 -8 -9 -9 -8 -7 -6 -7 -8 -7 -7 -7 -6 -0 1 1 -0 -0 -1 1
-2 -1 -2 -2 -3 -2 -1 -1 -1 -2 -3 -3 -1 1 2 0 0 1 3 -0 -3 -6 -6 -5 -9 -17 -25 -16 2 16 19 6 -5 -11 -10 -12 -8 -1 6 -1 -9 -12 -8 -4 -2 -3 -2 -3 -3 -3 -3 -2 -1 0 1 1 2 3 5 6 6 6 6 3 -1 -5 -7 -8 -8 -8 -8 -7 -7 -8 -10 -8 -8 -8 -10 -4 2 4 2 2 3 7
-2 -1 1 -1 -3 -5 -5 -2 0 1 1 -0 -1 -0 2 3 3 2 -0 -1 -3 -5 -8 -5 -3 -5 -12 -19 -12 2 17 10 0 -8 -10 -11 -8 -3 4 -0 -6 -9 -7 -4 -3 -1 -1 -3 -4 -3 -4 -3 -1 0 0 1 2 4 5 6 7 7 4 -0 -4 -6 -6 -7 -7 -8 -7 -7 -7 -8 -10 -11 -10 -11 -14 -8 -2 3 3 2 5 10
-2 0 1 -1 -4 -6 -6 -2 1 4 4 1 -0 -1 -2 1 4 5 2 1 -0 -2 -4 -6 -5 -4 -1 -9 -8 -1 12 11 4 -3 -7 -8 -6 -1 5 2 -3 -7 -6 -3 -1 -1 -1 -3 -3 -3 -2 -2 -2 -1 0 2 3 4 6 7 8 6 2 -2 -5 -6 -6 -7 -7 -7 -6 -6 -7 -9 -11 -12 -12 -13 -14 -13 -8 -2 2 2 6 10
-4 -2 -0 -0 -1 -3 -4 1 4 6 5 2 -1 -3 -5 -4 -2 -1 -1 0 0 0 -0 -2 -4 -5 -3 -7 -7 -1 10 10 4 -2 -6 -6 -5 -1 6 3 -2 -6 -6 -3 -1 1 -1 -4 -4 -3 -2 -1 -1 -0 0 2 4 6 8 9 8 5 0 -4 -6 -6 -6 -7 -6 -6 -4 -5 -7 -9 -10 -12 -13 -14 -14 -13 -11 -7 -2 -1 4 9
-6 -5 -0 3 2 -0 -2 1 4 6 6 3 0 -3 -6 -6 -6 -6 -5 -3 -2 -2 -0 -0 -2 -3 -1 -5 -5 -1 10 10 5 -3 -8 -8 -5 -0 6 2 -3 -7 -7 -4 -1 1 -1 -4 -4 -3 -2 -1 -1 0 1 2 5 7 10 11 9 5 -1 -5 -6 -6 -7 -7 -6 -4 -3 -4 -6 -9 -12 -14 -15 -14 -13 -13 -13 -12 -9 -6 -2 2
-6 -4 1 6 6 3 -1 -0 1 3 4 2 -0 -2 -4 -4 -6 -6 -6 -3 -2 -2 -0 1 2 2 3 -0 -2 0 8 9 4 -2 -8 -11 -9 -3 6 2 -3 -7 -8 -5 -2 -1 -2 -4 -4 -3 -2 -1 -1 -0 1 3 5 8 12 12 10 4 -2 -5 -6 -7 -7 -7 -5 -3 -2 -3 -5 -8 -12 -15 -16 -16 -15 -14 -14 -12 -9 -6 -2 1
-1 -1 2 5 5 3 -1 -2 -3 -2 -0 -0 -1 -3 -3 -2 -3 -4 -4 -2 -1 -1 -1 -1 0 2 5 3 1 1 5 6 3 -2 -6 -11 -11 -7 2 1 -3 -7 -7 -4 -3 -3 -4 -3 -3 -3 -2 -2 -1 -0 0 2 5 9 13 13 9 4 -2 -4 -5 -6 -7 -6 -4 -2 -1 -2 -3 -6 -11 -15 -17 -17 -16 -16 -14 -11 -7 -5 -2 1
3 2 1 1 -0 -1 -3 -5 -6 -5 -4 -2 -2 -2 -2 -1 -2 -2 -2 -1 -1 -3 -5 -6 -5 -3 1 3 3 2 4 5 3 -1 -5 -9 -9 -6 -1 -1 -3 -7 -8 -3 -2 -3 -5 -4 -2 -1 -2 -2 -2 -1 -1 1 4 9 14 14 10 4 -1 -3 -5 -6 -7 -5 -3 -1 -0 -0 -1 -4 -8 -13 -16 -17 -16 -15 -13 -11 -9 -7 -3 1
0 -1 -2 -3 -3 -4 -4 -5 -5 -4 -2 -2 -1 -2 -2 -2 -2 -2 -1 -1 -1 -3 -6 -6 -6 -4 -1 1 2 3 5 6 4 1 -3 -8 -9 -6 -1 1 -2 -6 -9 -4 -2 -2 -5 -5 -3 -1 -1 -3 -2 -2 -1 -0 4 8 14 15 12 6 0 -2 -4 -5 -6 -5 -3 -1 0 1 1 -2 -5 -11 -14 -16 -15 -14 -13 -12 -11 -9 -5 -1
-1 -2 -3 -3 -3 -3 -2 -1 0 2 4 3 1 -1 -3 -4 -5 -4 -3 -0 0 -1 -5 -6 -6 -4 -0 1 2 2 4 6 5 4 0 -5 -8 -8 -1 2 -0 -5 -9 -5 -2 -1 -4 -5 -3 -2 -1 -3 -3 -3 -2 -0 3 8 14 16 13 8 2 -1 -3 -4 -6 -5 -3 -1 1 2 2 1 -2 -7 -12 -14 -14 -13 -13 -14 -14 -11 -8 -4
1 0 -0 -1 -1 -0 1 3 5 6 6 5 2 -1 -4 -5 -6 -6 -3 1 2 0 -3 -5 -6 -6 -3 -0 1 2 3 4 5 4 2 -3 -7 -7 -2 2 0 -3 -7 -5 -2 -1 -2 -4 -4 -2 -2 -3 -4 -3 -2 -1 2 7 13 16 14 9 3 -0 -3 -4 -5 -4 -3 -2 -0 2 4 4 2 -4 -10 -13 -12 -11 -12 -13 -14 -12 -9 -6
2 1 0 0 1 2 3 4 4 4 3 2 1 -0 -2 -2 -3 -2 -1 2 2 1 -0 -1 -3 -5 -6 -3 -0 2 3 3 3 2 -0 -3 -6 -6 -2 -0 -0 -2 -4 -6 -4 -1 0 -2 -2 -3 -3 -3 -4 -4 -3 -1 1 5 10 15 14 10 4 0 -2 -3 -4 -4 -4 -3 -2 1 4 6 6 -1 -6 -10 -10 -8 -8 -10 -11 -11 -10 -7
1 0 0 1 2 3 3 2 1 1 0 0 0 1 1 2 2 1 1 2 2 1 -0 1 -0 -2 -5 -4 -3 0 4 3 1 -1 -3 -5 -7 -6 -2 -1 -2 -3 -4 -7 -7 -5 0 1 0 -2 -4 -4 -4 -4 -4 -2 0 3 7 12 14 11 6 2 -1 -2 -2 -3 -5 -5 -4 -1 3 6 8 3 -3 -7 -8 -6 -5 -6 -9 -10 -10 -9
-1 -1 -0 1 1 1 0 -0 -0 0 1 1 2 3 4 4 4 4 2 2 1 0 -1 -1 -1 -1 -4 -7 -7 -5 0 4 2 -1 -4 -6 -7 -6 -2 -1 -1 -1 -1 -7 -11 -11 -5 1 3 1 -3 -4 -5 -5 -4 -3 -1 1 4 9 12 12 9 4 1 -0 -1 -3 -5 -7 -8 -5 -0 5 9 5 -0 -5 -7 -5 -4 -4 -6 -7 -8 -8
-1 -1 -1 -1 -0 -0 -1 -0 0 1 1 2 3 4 4 4 4 3 1 0 -0 -1 -2 -2 -2 -1 -2 -5 -7 -8 -4 2 3 1 -2 -5 -6 -4 0 -1 -1 -0 2 -2 -8 -13 -14 -5 1 4 -0 -3 -5 -5 -5 -4 -2 0 3 6 10 12 11 7 3 1 -0 -2 -4 -7 -9 -8 -4 1 6 5 -0 -5 -8 -6 -4 -3 -3 -4 -3 -4
-1 -1 -1 -1 -1 -1 -0 0 0 0 0 1 1 2 3 3 2 1 -0 -1 -2 -3 -4 -4 -3 -2 -0 -1 -2 -3 -3 1 2 1 -2 -4 -5 -4 1 0 -1 -1 2 2 -1 -7 -13 -12 -5 0 1 -2 -4 -5 -6 -4 -2 0 3 5 8 10 12 8 5 2 1 -1 -3 -6 -10 -10 -8 -3 1 1 -2 -6 -9 -8 -6 -4 -3 -1 1 2
-0 -1 -1 -1 -0 0 1 1 0 -0 -1 -1 -1 -0 1 1 1 1 -0 -1 -2 -3 -3 -4 -4 -3 -2 -1 0 1 1 1 -0 -1 -2 -4 -5 -4 -1 0 -1 -1 -0 1 1 -1 -6 -9 -8 -5 -2 -1 -2 -4 -6 -6 -3 0 4 5 7 9 10 9 6 4 2 -0 -2 -5 -8 -10 -9 -7 -3 -3 -6 -9 -11 -10 -8 -6 -4 -0 3 5
-0 -0 -0 0 1 1 1 1 -0 -1 -2 -2 -2 -1 -0 0 1 1 1 -0 -1 -1 -1 -1 -2 -3 -4 -4 -3 -1 2 2 1 -2 -3 -4 -5 -5 -2 -0 -0 -1 -2 -2 -1 -1 -3 -4 -5 -5 -5 -3 -2 -2 -5 -7 -6 -2 4 7 8 8 8 8 7 5 3 1 -1 -3 -6 -8 -9 -9 -7 -6 -8 -10 -13 -12 -10 -8 -5 -2 2 5
-1 -1 0 1 1 1 1 -0 -1 -2 -3 -2 -2 -1 -0 0 0 0 0 -0 -1 -1 -1 -0 -0 -1 -3 -5 -6 -4 -0 2 2 0 -1 -2 -4 -4 -3 -0 1 0 -2 -3 -2 -2 -4 -3 -2 -3 -5 -4 -2 -1 -3 -7 -8 -5 1 7 9 8 7 7 6 5 3 1 0 -1 -3 -6 -8 -9 -9 -9 -9 -11 -12 -12 -10 -8 -6 -3 -0 3
-1 -1 0 1 1 1 -0 -1 -2 -2 -3 -2 -1 -1 -0 -0 0 0 0 -0 -0 -0 0 1 1 1 -0 -2 -4 -4 -3 -0 1 2 0 -1 -2 -3 -4 -1 2 2 -0 -2 -2 -2 -3 -3 -2 -1 -2 -4 -4 -3 -2 -6 -8 -8 -4 3 8 10 8 7 6 5 4 3 2 1 -1 -4 -7 -9 -10 -9 -10 -10 -10 -9 -8 -6 -5 -4 -2 1
-2 -1 0 1 1 0 -1 -1 -2 -2 -2 -2 -1 -1 -0 0 0 0 0 1 1 1 1 2 3 3 2 1 -1 -2 -2 -1 0 1 1 0 -1 -2 -3 -1 2 4 4 0 -1 -2 -2 -3 -3 -2 0 -1 -2 -3 -3 -5 -7 -9 -9 -3 3 8 10 8 6 4 3 4 4 3 1 -3 -6 -8 -9 -9 -9 -9 -8 -7 -6 -4 -3 -3 -1 0
-1 -1 0 1 1 0 -1 -2 -2 -2 -2 -2 -1 -1 0 1 1 1 1 1 1 1 1 2 3 4 4 3 2 0 -0 -0 0 1 1 1 0 -1 -2 -2 0 4 6 4 1 -0 -1 -2 -3 -3 -1 0 0 -0 -2 -4 -6 -8 -10 -8 -4 2 8 7 5 2 1 3 4 3 -0 -3 -6 -8 -8 -9 -10 -10 -9 -7 -6 -5 -4 -3 -2 -1
-1 -1 0 1 1 0 -1 -2 -2 -2 -2 -1 -0 0 0 1 1 1 2 1 1 0 -0 0 1 1 2 2 1 1 0 0 0 0 0 0 0 -0 -1 -2 -0 2 5 5 4 2 0 -1 -1 -2 -2 -1 -0 1 1 -1 -3 -5 -8 -10 -8 -5 0 4 3 2 1 3 3 2 -1 -4 -5 -6 -7 -9 -11 -12 -11 -10 -8 -8 -7 -6 -4 -2
-1 -1 -0 1 1 0 -0 -1 -2 -2 -1 0 1 1 0 -0 -0 0 1 1 1 -0 -1 -1 -0 0 1 0 -0 -1 -1 -0 -0 -0 -0 -0 -0 -0 -0 -1 -0 1 3 4 4 3 2 0 -0 -0 -0 -1 -1 0 1 1 -0 -2 -4 -7 -8 -8 -7 -2 0 1 2 2 2 1 -0 -2 -3 -4 -6 -8 -10 -12 -12 -11 -10 -9 -9 -9 -8 -6
-1 -1 -0 1 1 0 -0 -1 -1 -1 0 1 1 1 -1 -2 -2 -2 -1 0 0 -0 -1 -1 -1 -0 1 1 1 0 -0 -0 0 0 0 0 -0 -0 0 0 0 1 2 2 3 4 3 1 0 -0 0 0 -0 -0 1 2 2 0 -1 -3 -4 -6 -7 -6 -4 -2 -0 1 1 1 0 -1 -2 -3 -6 -8 -11 -12 -12 -11 -10 -10 -10 -8 -7 -6
-1 -1 -0 1 1 1 1 0 -0 0 1 2 1 0 -1 -2 -3 -3 -2 -2 -1 -1 -1 -1 -2 -2 -1 2 3 3 2 1 1 1 1 1 1 0 0 1 1 1 1 1 2 3 4 3 1 1 1 0 -0 -1 1 3 3 2 1 0 -0 -1 -2 -4 -4 -4 -2 0 2 2 0 -1 -3 -5 -7 -10 -13 -14 -15 -14 -13 -13 -12 -11 -9 -6
-1 -1 -0 1 1 1 1 1 2 2 1 1 1 -0 -1 -1 -2 -3 -3 -2 -2 -1 -1 -1 -1 -2 -2 -1 1 3 3 2 1 1 0 0 0 0 0 1 1 1 1 0 0 1 3 3 3 2 2 0 -1 -1 -0 2 3 3 3 3 3 2 2 2 0 -1 -1 2 3 4 2 0 -2 -4 -6 -9 -12 -15 -17 -16 -15 -15 -14 -13 -12 -10
-1 -1 0 1 1 1 1 1 1 1 1 1 0 -0 -0 -1 -1 -2 -3 -2 -2 -1 -1 -2 -2 -2 -1 -1 0 2 3 3 2 1 -0 -0 -0 -1 -1 -0 0 1 2 1 -0 -1 0 2 3 3 2 1 -1 -1 -0 1 2 3 4 4 4 5 5 6 5 4 3 4 5 5 3 1 -1 -4 -6 -8 -11 -14 -16 -16 -15 -14 -14 -13 -12 -11
-1 -0 1 1 1 1 0 0 0 0 0 1 1 0 0 -0 -1 -1 -2 -3 -3 -2 -2 -2 -3 -3 -3 -1 0 1 3 3 3 2 0 -0 -0 -0 -0 -0 -0 0 1 2 1 1 0 0 1 2 2 1 1 0 -0 0 1 2 3 4 4 5 6 8 9 8 8 8 7 6 4 1 -2 -5 -7 -9 -11 -13 -16 -17 -16 -16 -15 -15 -13 -12
-1 0 1 1 0 0 0 0 0 0 0 1 1 1 0 -0 -1 -1 -1 -2 -3 -3 -2 -2 -2 -2 -3 -3 -2 -1 0 2 3 3 1 0 -0 -0 0 1 1 1 1 1 1 2 2 1 1 0 0 1 1 1 1 -0 -1 -0 1 2 3 4 6 8 9 10 10 10 9 8 5 1 -2 -5 -7 -7 -9 -11 -14 -16 -17 -17 -16 -15 -14 -12
-0 0 0 0 -0 -0 0 1 1 1 0 0 1 1 0 -0 -1 -2 -2 -1 -2 -2 -3 -2 -1 -1 -1 -2 -2 -2 -2 -1 0 1 1 0 -0 -1 -0 0 0 1 1 1 1 1 1 2 2 1 0 -1 -0 0 1 0 -1 -2 -1 -0 1 2 4 6 6 7 8 9 9 9 7 3 -1 -3 -5 -6 -7 -9 -12 -14 -15 -15 -14 -12 -11 -10
0 1 0 0 -0 -0 0 0 0 0 -0 -0 0 1 1 1 -0 -1 -2 -2 -2 -1 -2 -2 -2 -1 -1 -0 -0 -1 -1 -2 -2 -1 -0 -1 -1 -1 -1 -0 -0 0 1 1 1 1 1 2 2 2 1 -0 -1 -1 0 -0 -1 -3 -3 -2 -1 0 2 3 3 2 3 5 7 8 8 5 3 0 -2 -5 -8 -10 -11 -13 -14 -14 -13 -11 -10 -9
1 1 1 0 0 0 0 0 -0 -0 -1 -1 -1 -0 1 1 1 0 -1 -2 -2 -1 -2 -2 -2 -2 -1 -1 -0 -0 -0 -1 -1 -1 -1 -1 -1 -2 -1 -1 -0 -0 0 1 1 2 1 2 3 3 2 0 -1 -2 -1 -1 -2 -3 -4 -3 -2 -1 -0 1 0 -1 -2 -2 -0 2 5 6 6 4 -0 -4 -7 -9 -10 -12 -13 -13 -13 -11 -10 -9
1 1 1 1 0 0 0 0 -0 -0 -1 -1 -1 -1 -0 0 1 1 0 -1 -1 -1 -1 -1 -1 -2 -2 -1 -1 -1 -1 -2 -2 -2 -1 -1 -2 -2 -2 -1 -1 -1 -1 -0 1 2 2 2 4 5 4 2 -0 -2 -3 -2 -2 -3 -3 -3 -3 -3 -2 -0 -0 -1 -4 -7 -7 -6 -2 1 2 2 -1 -4 -6 -7 -8 -10 -11 -11 -10 -9 -8 -8
1 1 1 1 0 0 0 0 0 -0 -0 -1 -1 -1 -1 -1 -0 -0 -0 -0 -1 -1 -0 0 1 0 -1 -1 -1 -1 -0 -1 -2 -3 -3 -2 -2 -3 -3 -2 -2 -2 -3 -3 -2 -0 1 1 3 6 8 4 0 -2 -3 -3 -2 -2 -3 -3 -3 -4 -3 -2 -1 -1 -3 -6 -8 -10 -10 -7 -4 -2 -2 -3 -5 -7 -10 -10 -10 -8 -7 -6 -6 -7
Height
2921 2920 2919 2917 2915 2913 2911 2911 2909 2906 2903 2902 2901 2899 2897 2895 2893 2891 2889 2886 2884 2881 2879 2876 2874 2872 2871 2870 2868 2866 2865 2863 2861 2860 2858 2856 2854 2853 2851 2849 2847 2845 2842 2840 2838 2835 2834 2832 2831 2831 2831 2831 2831 2832 2832 2833 2832 2831 2831 2831 2831 2830 2830 2830 2831 2832 2832 2832 2832 2833 2832 2830 2829 2830 2830 2831 2832 2833 2834 2835 2835 2834 2835 2836 2837 2836
2919 2917 2916 2914 2912 2910 2908 2908 2906 2904 2901 2899 2898 2896 2894 2892 2889 2887 2885 2883 2880 2878 2875 2873 2870 2869 2867 2865 2864 2863 2861 2860 2858 2856 2854 2852 2850 2849 2846 2845 2843 2840 2838 2836 2834 2832 2830 2829 2828 2829 2828 2829 2829 2829 2829 2828 2827 2826 2826 2826 2825 2825 2825 2826 2827 2827 2827 2828 2829 2829 2827 2825 2825 2826 2827 2827 2828 2830 2832 2832 2831 2831 2833 2835 2835 2834
2916 2914 2913 2911 2910 2908 2906 2905 2903 2902 2900 2897 2895 2893 2891 2888 2886 2884 2881 2879 2876 2874 2872 2870 2867 2865 2863 2862 2860 2859 2857 2856 2854 2852 2850 2849 2847 2845 2842 2840 2838 2836 2834 2832 2830 2828 2827 2827 2827 2827 2827 2827 2826 2824 2822 2821 2821 2821 2821 2821 2821 2821 2821 2821 2822 2823 2823 2825 2825 2824 2822 2821 2822 2824 2824 2824 2825 2826 2827 2827 2828 2830 2832 2833 2834 2834
2914 2912 2910 2909 2907 2905 2904 2902 2900 2898 2896 2894 2892 2890 2888 2885 2883 2880 2878 2875 2873 2870 2868 2866 2864 2862 2860 2858 2857 2855 2854 2852 2850 2849 2847 2845 2843 2840 2838 2836 2834 2832 2830 2828 2826 2824 2823 2825 2826 2825 2824 2822 2820 2818 2817 2817 2817 2817 2817 2817 2817 2817 2817 2817 2818 2819 2820 2821 2821 2819 2817 2818 2820 2820 2821 2821 2821 2823 2824 2825 2826 2828 2830 2831 2832 2832
2912 2910 2907 2906 2904 2903 2901 2900 2898 2895 2893 2891 2889 2887 2885 2882 2879 2876 2874 2872 2870 2867 2865 2863 2861 2859 2856 2854 2853 2851 2850 2848 2847 2845 2843 2841 2839 2836 2834 2832 2830 2828 2826 2825 2822 2820 2819 2820 2820 2818 2816 2815 2814 2814 2814 2813 2813 2813 2813 2813 2813 2813 2813 2813 2814 2815 2817 2817 2815 2814 2813 2815 2817 2817 2817 2817 2818 2819 2821 2822 2823 2824 2826 2828 2828 2827
2909 2908 2905 2904 2902 2900 2898 2897 2895 2893 2890 2888 2886 2884 2882 2879 2876 2873 2870 2869 2866 2864 2862 2860 2858 2856 2854 2851 2849 2848 2846 2845 2843 2841 2840 2837 2835 2833 2830 2829 2826 2825 2823 2821 2819 2817 2815 2814 2812 2811 2810 2810 2810 2810 2809 2809 2809 2809 2809 2810 2810 2809 2809 2809 2810 2812 2813 2812 2810 2809 2810 2812 2813 2813 2813 2814 2815 2816 2818 2819 2820 2822 2824 2824 2823 2822
2906 2905 2904 2901 2899 2897 2896 2894 2893 2890 2888 2885 2882 2880 2879 2876 2874 2871 2868 2866 2864 2862 2859 2857 2855 2853 2850 2848 2846 2844 2842 2841 2839 2837 2835 2833 2831 2829 2827 2825 2823 2821 2819 2817 2815 2814 2812 2810 2809 2808 2807 2806 2806 2806 2805 2805 2805 2805 2805 2806 2806 2805 2805 2805 2807 2809 2809 2807 2805 2804 2806 2808 2809 2809 2809 2810 2811 2812 2815 2816 2818 2819 2821 2821 2819 2817
2903 2902 2901 2899 2897 2894 2893 2892 2891 2889 2886 2882 2879 2877 2875 2873 2870 2869 2866 2864 2861 2859 2856 2854 2851 2850 2847 2845 2843 2841 2839 2837 2835 2833 2831 2829 2827 2825 2823 2821 2819 2817 2815 2814 2812 2810 2809 2807 2806 2805 2804 2803 2803 2802 2802 2802 2802 2802 2802 2803 2802 2802 2802 2803 2804 2805 2805 2801 2800 2800 2803 2805 2805 2805 2805 2806 2807 2809 2811 2813 2815 2816 2816 2815 2814 2812
2901 2899 2898 2897 2895 2892 2890 2888 2888 2886 2884 2880 2877 2874 2871 2868 2866 2865 2863 2861 2859 2856 2854 2850 2848 2846 2844 2843 2840 2838 2836 2834 2832 2829 2827 2825 2823 2821 2819 2817 2815 2813 2811 2810 2808 2806 2805 2804 2803 2802 2801 2800 2799 2799 2799 2799 2799 2799 2799 2800 2799 2799 2799 2800 2801 2801 2800 2797 2796 2797 2800 2801 2801 2801 2802 2803 2804 2806 2808 2810 2812 2812 2812 2810 2808 2806
2898 2896 2895 2893 2892 2890 2888 2885 2883 2882 2881 2877 2874 2871 2869 2866 2863 2861 2859 2857 2856 2854 2852 2849 2846 2843 2841 2840 2838 2836 2833 2831 2829 2827 2825 2822 2820 2818 2816 2814 2812 2810 2808 2807 2805 2804 2802 2801 2800 2799 2798 2797 2796 2796 2796 2796 2796 2796 2796 2796 2796 2796 2796 2797 2798 2797 2795 2792 2793 2795 2796 2797 2798 2798 2799 2800 2802 2804 2806 2808 2809 2808 2807 2805 2804 2804
2895 2893 2891 2889 2888 2886 2884 2882 2880 2878 2877 2874 2870 2868 2866 2865 2862 2859 2856 2854 2852 2851 2850 2848 2845 2842 2839 2837 2835 2833 2831 2828 2825 2824 2822 2820 2817 2815 2813 2811 2809 2807 2805 2804 2802 2800 2799 2798 2797 2796 2795 2794 2793 2793 2793 2793 2793 2793 2793 2793 2793 2793 2793 2794 2794 2793 2790 2789 2790 2792 2793 2794 2795 2795 2796 2797 2799 2801 2804 2805 2805 2805 2803 2801 2801 2802
2892 2890 2888 2887 2885 2883 2881 2879 2877 2875 2874 2871 2868 2865 2864 2862 2861 2859 2855 2852 2850 2848 2847 2845 2843 2841 2838 2835 2832 2829 2827 2825 2822 2820 2818 2815 2814 2811 2809 2807 2805 2804 2802 2800 2799 2798 2796 2795 2794 2793 2792 2791 2790 2790 2790 2790 2790 2791 2791 2791 2790 2790 2790 2790 2790 2789 2786 2786 2788 2789 2790 2791 2792 2793 2794 2794 2796 2799 2801 2802 2802 2801 2800 2799 2799 2800
2889 2888 2886 2884 2882 2881 2879 2877 2875 2873 2871 2869 2867 2865 2863 2861 2859 2857 2854 2850 2848 2846 2844 2841 2839 2837 2835 2833 2829 2826 2824 2821 2819 2816 2814 2812 2810 2808 2806 2804 2802 2800 2799 2797 2796 2795 2794 2792 2791 2790 2789 2788 2788 2788 2788 2788 2788 2788 2788 2788 2788 2787 2787 2787 2786 2785 2783 2784 2786 2787 2788 2789 2790 2791 2791 2792 2794 2796 2798 2799 2799 2799 2798 2798 2798 2798
2887 2885 2884 2882 2880 2879 2878 2876 2874 2871 2869 2868 2866 2864 2862 2860 2857 2855 2851 2848 2846 2844 2842 2839 2835 2833 2831 2829 2826 2824 2820 2817 2815 2812 2810 2808 2807 2805 2803 2801 2799 2798 2796 2794 2792 2791 2790 2789 2788 2787 2786 2785 2785 2785 2785 2785 2785 2786 2786 2786 2786 2785 2784 2783 2782 2781 2781 2783 2784 2785 2786 2787 2787 2788 2789 2790 2791 2793 2795 2796 2796 2797 2798 2798 2798 2797
2885 2884 2882 2880 2879 2877 2876 2875 2872 2870 2867 2866 2864 2862 2859 2857 2855 2853 2850 2846 2844 2841 2839 2835 2832 2830 2828 2826 2824 2821 2818 2815 2812 2809 2807 2805 2804 2803 2800 2798 2796 2795 2793 2791 2790 2789 2788 2786 2785 2784 2783 2783 2782 2782 2782 2782 2783 2783 2784 2784 2783 2782 2781 2780 2779 2779 2780 2781 2783 2784 2784 2785 2785 2786 2786 2787 2789 2790 2792 2794 2795 2796 2797 2797 2797 2797
2884 2882 2880 2878 2877 2876 2875 2873 2870 2868 2865 2864 2862 2860 2857 2855 2852 2850 2847 2844 2841 2838 2835 2832 2828 2825 2823 2823 2822 2820 2816 2812 2809 2806 2804 2801 2800 2800 2799 2796 2794 2792 2790 2789 2787 2786 2785 2784 2783 2781 2780 2780 2780 2780 2780 2780 2780 2781 2781 2781 2780 2780 2778 2777 2776 2777 2779 2780 2781 2782 2783 2783 2784 2784 2784 2785 2785 2787 2789 2791 2793 2795 2795 2796 2796 2797
2882 2880 2879 2877 2875 2874 2872 2870 2869 2866 2864 2862 2860 2858 2856 2853 2850 2848 2845 2842 2839 2835 2832 2830 2826 2822 2818 2817 2818 2817 2815 2811 2807 2804 2801 2799 2797 2797 2796 2794 2791 2789 2788 2786 2785 2784 2783 2781 2780 2779 2778 2777 2777 2777 2777 2777 2778 2778 2779 2779 2778 2777 2775 2774 2775 2776 2777 2779 2780 2780 2781 2782 2782 2782 2782 2783 2783 2784 2786 2789 2791 2792 2793 2795 2796 2797
2880 2879 2877 2875 2873 2871 2870 2868 2866 2864 2862 2860 2857 2855 2853 2851 2849 2846 2843 2840 2837 2833 2830 2827 2824 2821 2817 2814 2813 2813 2813 2809 2805 2802 2799 2796 2795 2794 2794 2792 2790 2787 2785 2784 2783 2782 2780 2779 2778 2777 2776 2775 2775 2775 2775 2775 2775 2776 2776 2776 2775 2774 2773 2773 2773 2775 2776 2777 2778 2779 2780 2780 2781 2781 2781 2781 2782 2783 2784 2786 2788 2789 2790 2792 2793 2794
2878 2877 2875 2873 2871 2869 2868 2867 2865 2863 2860 2858 2856 2853 2851 2849 2847 2844 2840 2838 2835 2831 2828 2824 2821 2818 2816 2813 2811 2810 2810 2807 2804 2800 2798 2795 2793 2792 2792 2790 2788 2785 2784 2782 2781 2780 2779 2777 2775 2775 2774 2773 2773 2772 2772 2773 2773 2773 2774 2773 2772 2771 2770 2771 2772 2773 2774 2775 2776 2778 2779 2779 2779 2780 2780 2780 2780 2781 2783 2785 2786 2787 2788 2789 2790 2791
2876 2875 2874 2872 2870 2867 2866 2865 2864 2862 2859 2856 2854 2851 2849 2847 2844 2842 2839 2835 2832 2829 2826 2822 2819 2816 2814 2811 2809 2808 2807 2805 2802 2798 2795 2792 2790 2790 2790 2788 2786 2783 2781 2780 2779 2778 2777 2775 2774 2772 2772 2771 2771 2770 2770 2770 2771 2771 2771 2770 2770 2769 2769 2770 2770 2771 2772 2773 2775 2776 2777 2778 2779 2779 2779 2779 2780 2780 2781 2783 2785 2786 2786 2786 2788 2789
2874 2872 2872 2870 2868 2866 2864 2863 2862 2860 2858 2855 2852 2849 2847 2844 2841 2839 2836 2833 2830 2827 2824 2821 2817 2814 2812 2809 2807 2806 2805 2803 2799 2796 2793 2790 2788 2788 2787 2786 2783 2781 2779 2778 2777 2776 2775 2773 2772 2770 2770 2769 2769 2769 2768 2768 2769 2769 2769 2768 2767 2767 2767 2767 2768 2769 2770 2771 2773 2774 2776 2777 2777 2778 2778 2779 2779 2780 2781 2782 2784 2785 2785 2786 2788 2790
2871 2870 2870 2869 2867 2865 2863 2861 2860 2858 2856 2854 2850 2847 2845 2842 2839 2836 2833 2831 2828 2825 2822 2819 2815 2813 2810 2808 2805 2804 2803 2800 2797 2794 2791 2788 2786 2785 2785 2784 2781 2779 2777 2776 2775 2775 2773 2771 2770 2769 2768 2768 2767 2767 2766 2766 2766 2766 2766 2766 2765 2765 2765 2765 2766 2767 2768 2769 2771 2773 2774 2775 2776 2776 2777 2778 2779 2779 2780 2781 2783 2784 2785 2787 2788 2789
2870 2869 2868 2867 2865 2864 2861 2859 2858 2856 2854 2851 2849 2845 2843 2840 2837 2834 2831 2829 2826 2823 2820 2816 2814 2811 2809 2806 2804 2802 2800 2798 2795 2792 2789 2786 2783 2782 2783 2781 2779 2777 2775 2774 2774 2772 2771 2770 2769 2768 2767 2766 2765 2765 2765 2764 2764 2764 2764 2763 2763 2763 2763 2763 2764 2765 2766 2767 2769 2771 2772 2773 2774 2775 2776 2777 2778 2779 2780 2781 2782 2783 2784 2785 2786 2787
2869 2868 2866 2865 2863 2861 2859 2857 2855 2853 2851 2849 2846 2844 2841 2839 2836 2833 2830 2827 2824 2821 2817 2814 2812 2809 2807 2805 2803 2800 2798 2796 2793 2790 2788 2785 2782 2781 2780 2779 2777 2775 2774 2773 2772 2771 2769 2768 2767 2766 2765 2765 2764 2763 2763 2762 2762 2761 2761 2761 2761 2761 2761 2761 2762 2763 2764 2765 2767 2769 2770 2772 2773 2774 2775 2777 2778 2779 2780 2780 2781 2781 2782 2783 2784 2785
2868 2866 2864 2863 2861 2859 2857 2855 2853 2851 2849 2847 2844 2841 2839 2836 2834 2831 2828 2825 2823 2819 2816 2813 2810 2808 2805 2803 2801 2799 2797 2795 2792 2789 2786 2784 2781 2780 2779 2778 2776 2774 2772 2771 2770 2769 2768 2766 2766 2765 2764 2763 2762 2762 2761 2760 2760 2759 2759 2759 2759 2759 2759 2760 2760 2760 2762 2763 2765 2767 2768 2770 2771 2773 2774 2776 2777 2778 2779 2779 2780 2780 2781 2782 2783 2784
2866 2864 2862 2861 2859 2857 2855 2854 2852 2850 2848 2845 2842 2840 2837 2834 2831 2829 2826 2824 2821 2818 2815 2812 2809 2806 2804 2802 2799 2797 2795 2793 2791 2788 2785 2783 2780 2779 2778 2777 2775 2773 2770 2770 2769 2768 2766 2765 2764 2764 2763 2762 2761 2760 2759 2759 2758 2757 2757 2756 2756 2757 2757 2757 2758 2759 2760 2761 2763 2764 2766 2767 2769 2771 2773 2775 2776 2777 2778 2778 2779 2780 2781 2781 2782 2783
2864 2862 2861 2859 2857 2856 2854 2852 2851 2849 2846 2844 2841 2838 2835 2832 2829 2827 2825 2823 2820 2817 2814 2810 2807 2804 2802 2800 2797 2795 2794 2791 2790 2787 2785 2782 2780 2778 2777 2775 2774 2771 2769 2768 2767 2766 2765 2764 2763 2762 2761 2760 2759 2759 2758 2757 2756 2755 2755 2754 2754 2755 2755 2755 2756 2757 2758 2760 2761 2762 2763 2765 2767 2769 2772 2773 2775 2776 2777 2777 2779 2780 2780 2780 2780 2781
2862 2860 2859 2857 2856 2854 2853 2851 2849 2847 2845 2842 2839 2836 2834 2831 2828 2826 2824 2822 2819 2816 2813 2809 2805 2802 2800 2797 2795 2794 2792 2790 2788 2786 2784 2781 2779 2777 2775 2774 2772 2770 2768 2766 2765 2764 2764 2762 2761 2760 2760 2759 2758 2757 2756 2756 2755 2754 2753 2752 2752 2752 2753 2754 2755 2756 2757 2759 2760 2760 2761 2762 2764 2767 2770 2772 2773 2775 2775 2777 2778 2779 2780 2780 2780 2780
2860 2858 2857 2855 2854 2852 2850 2849 2847 2845 2842 2840 2837 2835 2832 2830 2827 2825 2822 2820 2817 2814 2811 2808 2805 2801 2798 2795 2794 2793 2791 2789 2787 2784 2782 2780 2777 2775 2774 2773 2771 2769 2767 2765 2763 2762 2762 2761 2760 2759 2758 2757 2757 2756 2755 2754 2753 2752 2751 2750 2750 2750 2751 2752 2753 2755 2756 2757 2758 2759 2760 2760 2762 2765 2767 2770 2771 2773 2774 2775 2777 2778 2779 2779 2779 2780
2857 2856 2855 2854 2852 2850 2848 2846 2844 2842 2840 2838 2835 2833 2831 2829 2826 2824 2821 2818 2815 2812 2809 2806 2803 2800 2797 2794 2792 2791 2790 2788 2786 2784 2781 2779 2776 2775 2773 2772 2770 2768 2766 2764 2761 2760 2760 2760 2759 2758 2757 2756 2755 2755 2754 2753 2752 2751 2750 2748 2748 2748 2749 2750 2751 2753 2755 2756 2757 2758 2759 2760 2761 2763 2765 2768 2770 2771 2773 2774 2775 2777 2778 2778 2779 2780
2855 2854 2852 2851 2849 2848 2846 2844 2842 2840 2838 2836 2834 2832 2829 2827 2824 2822 2819 2816 2813 2810 2807 2804 2802 2799 2796 2794 2791 2789 2788 2787 2786 2784 2781 2778 2776 2774 2773 2771 2769 2768 2766 2764 2761 2759 2758 2758 2758 2758 2756 2755 2754 2754 2753 2752 2751 2750 2749 2747 2746 2746 2747 2748 2750 2751 2753 2755 2756 2757 2758 2759 2760 2761 2763 2765 2768 2770 2771 2773 2774 2775 2777 2778 2778 2780
2852 2851 2850 2848 2847 2845 2844 2842 2840 2838 2836 2834 2832 2830 2827 2825 2822 2820 2817 2815 2811 2809 2806 2803 2801 2798 2796 2794 2791 2789 2787 2786 2785 2783 2780 2778 2775 2774 2772 2770 2769 2767 2766 2764 2762 2760 2757 2756 2756 2756 2756 2755 2754 2753 2752 2751 2750 2749 2748 2746 2745 2745 2745 2746 2748 2749 2751 2753 2755 2756 2757 2758 2760 2761 2762 2764 2766 2769 2770 2772 2773 2775 2775 2777 2777 2779
2850 2849 2847 2846 2845 2843 2842 2840 2838 2836 2834 2832 2830 2828 2825 2823 2820 2818 2816 2813 2810 2808 2805 2802 2800 2797 2795 2793 2791 2789 2787 2785 2784 2782 2780 2777 2775 2773 2772 2770 2768 2767 2765 2764 2762 2760 2758 2756 2755 2755 2755 2754 2753 2752 2751 2750 2749 2748 2747 2746 2745 2744 2744 2745 2746 2748 2750 2752 2753 2755 2756 2758 2759 2760 2762 2764 2766 2768 2770 2772 2773 2774 2775 2776 2777 2778
2848 2846 2845 2844 2842 2841 2840 2838 2836 2834 2832 2830 2828 2826 2823 2821 2819 2817 2815 2812 2810 2807 2804 2802 2799 2796 2794 2792 2790 2788 2787 2785 2783 2781 2779 2776 2774 2772 2771 2770 2768 2766 2765 2763 2761 2760 2758 2756 2755 2754 2753 2752 2752 2751 2750 2749 2748 2747 2746 2745 2744 2743 2743 2743 2744 2746 2748 2750 2752 2753 2755 2757 2759 2760 2762 2764 2766 2769 2770 2772 2773 2774 2775 2776 2776 2777
2845 2844 2843 2842 2840 2839 2837 2835 2834 2832 2830 2828 2826 2824 2822 2820 2817 2815 2813 2811 2809 2806 2804 2801 2799 2796 2793 2791 2789 2787 2785 2784 2782 2780 2778 2776 2774 2772 2770 2769 2767 2766 2764 2762 2761 2759 2757 2756 2755 2753 2752 2751 2751 2750 2749 2748 2747 2746 2746 2745 2744 2743 2742 2742 2743 2745 2746 2749 2750 2752 2754 2755 2758 2760 2762 2764 2766 2769 2771 2772 2774 2775 2775 2776 2776 2777
2843 2842 2841 2840 2838 2836 2835 2833 2832 2830 2828 2826 2825 2822 2820 2818 2816 2814 2812 2810 2808 2805 2803 2801 2798 2796 2793 2790 2788 2786 2784 2783 2781 2780 2778 2775 2773 2771 2769 2768 2766 2765 2763 2761 2760 2758 2757 2755 2754 2753 2751 2750 2750 2749 2749 2748 2747 2746 2745 2744 2743 2743 2742 2742 2742 2743 2745 2747 2749 2750 2752 2754 2756 2759 2761 2764 2766 2769 2770 2772 2773 2775 2775 2776 2777 2777
2841 2840 2839 2837 2836 2834 2833 2831 2830 2828 2826 2825 2823 2821 2819 2817 2815 2813 2810 2809 2806 2805 2803 2800 2798 2796 2793 2791 2788 2786 2784 2782 2780 2778 2777 2775 2773 2771 2769 2767 2765 2764 2763 2761 2759 2758 2756 2755 2753 2752 2751 2750 2749 2748 2747 2747 2746 2745 2745 2744 2743 2742 2742 2742 2742 2743 2744 2745 2747 2749 2751 2753 2756 2758 2760 2763 2766 2768 2770 2772 2773 2774 2775 2776 2777 2778
2839 2838 2836 2835 2834 2832 2831 2829 2828 2826 2824 2823 2821 2819 2817 2815 2813 2811 2809 2807 2805 2803 2801 2800 2798 2795 2793 2790 2788 2785 2783 2781 2779 2777 2776 2774 2772 2770 2768 2766 2765 2763 2762 2760 2759 2757 2755 2754 2752 2751 2750 2749 2748 2747 2746 2746 2745 2745 2745 2744 2743 2742 2742 2742 2742 2742 2743 2745 2746 2748 2750 2753 2755 2758 2760 2763 2765 2767 2769 2771 2772 2774 2775 2775 2777 2778
2836 2835 2835 2833 2832 2830 2829 2827 2826 2824 2823 2821 2819 2817 2815 2814 2811 2810 2808 2806 2804 2802 2800 2798 2796 2794 2792 2790 2787 2785 2783 2780 2778 2776 2775 2773 2771 2770 2768 2765 2764 2762 2761 2760 2758 2756 2755 2753 2752 2751 2750 2748 2747 2747 2746 2745 2745 2745 2744 2744 2743 2743 2742 2742 2742 2743 2744 2744 2746 2748 2750 2752 2755 2757 2760 2762 2764 2766 2768 2770 2771 2773 2774 2775 2777 2778
2834 2833 2832 2831 2830 2828 2827 2825 2824 2822 2821 2820 2818 2816 2814 2812 2810 2808 2806 2804 2802 2800 2798 2796 2795 2793 2791 2789 2786 2784 2782 2780 2778 2776 2774 2772 2770 2768 2767 2765 2763 2761 2760 2759 2757 2756 2755 2753 2751 2750 2749 2748 2746 2746 2745 2745 2744 2744 2743 2743 2743 2743 2743 2742 2742 2743 2744 2745 2746 2747 2749 2751 2754 2756 2758 2760 2763 2765 2767 2769 2770 2772 2774 2775 2777 2779
2832 2831 2830 2829 2828 2826 2825 2824 2822 2821 2820 2818 2816 2814 2812 2810 2808 2806 2805 2803 2801 2799 2797 2795 2794 2792 2790 2788 2786 2784 2781 2779 2777 2775 2773 2771 2769 2767 2766 2764 2762 2760 2759 2758 2757 2755 2754 2752 2751 2750 2749 2747 2746 2745 2745 2744 2744 2743 2743 2742 2743 2743 2743 2743 2743 2743 2743 2745 2746 2747 2749 2751 2753 2755 2757 2760 2762 2764 2766 2768 2770 2772 2773 2775 2777 2779
2830 2829 2828 2827 2826 2825 2823 2822 2821 2819 2818 2816 2814 2812 2810 2808 2806 2804 2802 2800 2799 2797 2795 2793 2792 2790 2789 2787 2785 2783 2781 2779 2777 2775 2773 2771 2769 2767 2765 2763 2761 2760 2758 2757 2755 2755 2753 2752 2750 2749 2748 2747 2745 2745 2744 2744 2743 2742 2742 2742 2742 2742 2743 2743 2743 2743 2743 2744 2745 2747 2749 2750 2752 2754 2756 2759 2761 2764 2766 2769 2770 2772 2774 2775 2777 2779
2828 2827 2826 2825 2824 2823 2821 2820 2819 2817 2816 2814 2812 2810 2808 2806 2804 2802 2800 2799 2797 2795 2793 2792 2790 2788 2787 2785 2784 2782 2781 2779 2776 2774 2772 2770 2768 2766 2764 2762 2760 2759 2757 2756 2755 2754 2753 2751 2750 2749 2748 2746 2745 2744 2743 2743 2742 2742 2741 2741 2740 2740 2741 2742 2743 2743 2743 2744 2745 2746 2748 2750 2751 2754 2756 2759 2761 2764 2766 2768 2770 2772 2774 2775 2777 2779
2825 2825 2824 2823 2821 2820 2819 2818 2817 2815 2814 2812 2810 2809 2806 2805 2802 2800 2799 2797 2795 2793 2792 2790 2788 2787 2785 2784 2782 2781 2779 2778 2775 2773 2771 2769 2767 2765 2763 2761 2759 2758 2756 2755 2754 2752 2751 2750 2750 2748 2747 2746 2745 2744 2743 2742 2742 2741 2740 2740 2739 2739 2739 2740 2741 2741 2742 2743 2744 2745 2747 2749 2751 2753 2756 2758 2761 2763 2765 2767 2770 2771 2774 2775 2777 2779
2823 2822 2821 2820 2819 2818 2817 2816 2815 2813 2812 2810 2809 2807 2805 2803 2801 2799 2797 2795 2794 2792 2790 2788 2786 2785 2783 2782 2781 2779 2778 2776 2775 2773 2770 2769 2766 2765 2762 2760 2759 2757 2755 2754 2753 2752 2750 2750 2749 2748 2746 2745 2744 2743 2743 2742 2741 2740 2740 2739 2738 2738 2738 2738 2739 2740 2740 2742 2743 2745 2747 2749 2751 2753 2755 2758 2760 2763 2765 2767 2769 2771 2774 2776 2778 2780
2821 2820 2819 2818 2817 2816 2815 2814 2812 2811 2810 2808 2806 2805 2803 2801 2799 2797 2795 2793 2792 2790 2788 2787 2785 2783 2781 2780 2779 2777 2776 2775 2773 2771 2770 2768 2766 2764 2762 2760 2758 2756 2754 2753 2752 2751 2750 2749 2748 2747 2746 2745 2744 2743 2742 2741 2740 2740 2739 2738 2738 2737 2736 2736 2736 2737 2738 2740 2741 2744 2745 2748 2750 2752 2755 2757 2759 2762 2764 2767 2769 2771 2774 2776 2778 2780
2819 2818 2817 2816 2815 2814 2813 2811 2810 2809 2808 2806 2805 2803 2801 2799 2797 2795 2794 2792 2790 2788 2787 2785 2784 2782 2780 2779 2777 2775 2774 2773 2771 2770 2768 2766 2764 2763 2761 2759 2757 2755 2753 2752 2750 2750 2749 2748 2747 2746 2745 2744 2743 2743 2742 2741 2740 2739 2739 2738 2737 2736 2736 2735 2735 2735 2736 2737 2739 2742 2744 2747 2749 2751 2754 2756 2759 2761 2764 2767 2769 2771 2774 2775 2778 2780
2816 2816 2815 2814 2813 2812 2810 2810 2808 2807 2805 2804 2803 2801 2799 2797 2795 2793 2792 2790 2788 2787 2785 2784 2782 2781 2779 2778 2776 2774 2772 2771 2769 2768 2766 2764 2763 2761 2759 2757 2755 2754 2752 2751 2750 2748 2747 2747 2746 2745 2745 2743 2742 2742 2741 2740 2740 2739 2738 2738 2737 2737 2736 2735 2735 2734 2735 2735 2737 2739 2742 2745 2747 2750 2753 2755 2759 2761 2764 2766 2769 2771 2773 2775 2778 2780
2814 2814 2813 2812 2811 2810 2809 2807 2806 2805 2804 2802 2800 2799 2797 2795 2794 2792 2790 2788 2786 2785 2783 2782 2780 2779 2778 2776 2775 2773 2771 2770 2768 2766 2764 2762 2760 2759 2757 2755 2754 2752 2751 2750 2748 2747 2746 2746 2745 2745 2744 2743 2742 2741 2740 2740 2739 2739 2738 2738 2738 2737 2737 2736 2736 2735 2735 2735 2735 2737 2739 2742 2745 2747 2751 2754 2757 2760 2763 2765 2768 2770 2773 2775 2777 2780
2812 2811 2810 2810 2809 2808 2806 2805 2804 2803 2801 2800 2799 2797 2795 2794 2792 2790 2788 2786 2785 2783 2782 2780 2779 2777 2775 2774 2773 2771 2770 2768 2766 2765 2763 2761 2759 2757 2755 2754 2752 2750 2749 2748 2747 2746 2745 2744 2744 2744 2743 2742 2741 2740 2740 2739 2739 2738 2738 2738 2738 2738 2738 2737 2737 2736 2736 2736 2736 2737 2738 2740 2743 2746 2749 2752 2755 2758 2761 2765 2767 2770 2772 2775 2777 2779
2810 2809 2808 2807 2806 2805 2804 2803 2802 2801 2800 2798 2796 2795 2793 2792 2790 2788 2787 2785 2783 2782 2780 2779 2777 2775 2774 2772 2771 2770 2768 2766 2764 2763 2761 2759 2757 2755 2754 2752 2750 2748 2747 2745 2745 2744 2743 2742 2742 2742 2742 2742 2740 2740 2739 2738 2738 2738 2738 2738 2738 2738 2738 2738 2738 2738 2737 2737 2737 2738 2739 2740 2742 2745 2747 2750 2753 2756 2760 2764 2767 2770 2772 2774 2776 2779